Simultaneous Nadir Overpasses (SNOs) Predictions

Prediction of SNOs between GOES-16 and METOP-B Satellite Orbit:

Table of predicted SNOs for the next 14.0 days since TLE Epoch: 3/29/2019
Index Date Time (GOES-16) GOES-16 Lat,Lon METOP-B Lat,Lon Distance(km) Time Diff (sec)
1 03/29/2019 14:23:44 -0.00, -75.21 -0.26, -73.99 138.68 80
2 03/31/2019 02:45:25 0.00, -75.18 -0.75, -78.59 387.66 80
3 04/01/2019 02:24:46 0.01, -75.19 0.33, -73.59 181.57 80
4 04/02/2019 14:43:39 -0.01, -75.21 0.63, -78.16 335.13 80
5 04/03/2019 14:20:19 -0.01, -75.22 -0.45, -73.16 234.48 80
6 04/05/2019 02:42:01 0.01, -75.21 -0.57, -77.76 290.70 80
7 04/06/2019 02:18:42 0.01, -75.22 0.57, -72.77 279.23 80
8 04/07/2019 14:40:15 -0.01, -75.25 0.45, -77.33 236.44 80
9 04/08/2019 14:16:55 -0.01, -75.26 -0.64, -72.33 333.65 80
10 04/10/2019 02:38:36 0.00, -75.25 -0.38, -76.93 191.09 80
11 04/11/2019 02:15:18 0.00, -75.26 0.76, -71.94 379.05 80




NCC Satellite Simultaneous Nadir Overpasses (SNOs) Prediction Service
